Regional Weather Roundup
Issued by NWS Little Rock, AR

Home | Current Version | Previous Version | Graphics & Text | Print | Product List | Glossary On
Versions: 1 2 3 4 5 6 7 8 9 10 11 12 13 14 15 16 17 18 19 20 21 22 23 24 25 26 27 28 29 30 31 32 33 34 35 36 37 38 39 40 41 42 43 44 45 46 47 48
000
ASUS44 KLZK 251405
RWRLZK

WEATHER ROUNDUP FOR ARKANSAS
NATIONAL WEATHER SERVICE LITTLE ROCK AR
800 AM CST SUN JAN 25 2015

NOTE: "FAIR" INDICATES FEW OR NO CLOUDS BELOW 12,000 FEET WITH NO
SIGNIFICANT WEATHER AND/OR OBSTRUCTIONS TO VISIBILITY.

ARZ001-003-010-029-251500-
NORTHWEST ARKANSAS

CITY           SKY/WX    TMP DP  RH WIND       PRES   REMARKS
FAYETTEVILLE   CLOUDY    45  37  73 W10G20    29.78R
FORT SMITH     CLEAR     44  36  73 W10       29.82R
HARRISON       MOCLDY    45  39  79 W8        29.70S
BENTONVILLE    CLOUDY    46  36  66 NW13G18   29.76S
ROGERS         CLOUDY    46  37  71 W15       29.75R
SILOAM SPGS    CLOUDY    46  34  61 W13       29.79S
HIGHFILL       LGT RAIN  47  36  65 NW14G26   29.75S
SPRINGDALE     CLOUDY    46  37  71 W9        29.77S
$$

ARZ004-005-016-251500-
NORTH CENTRAL ARKANSAS

CITY           SKY/WX    TMP DP  RH WIND       PRES   REMARKS
BATESVILLE     CLOUDY    48  34  57 SW6       29.69F
FLIPPIN        CLOUDY    46  39  76 W9        29.69S
MTN HOME       CLOUDY    45  41  86 W7        29.68S
$$

ARZ040-041-251500-
WEST CENTRAL ARKANSAS

CITY           SKY/WX    TMP DP  RH WIND       PRES   REMARKS
MENA           MOCLDY    48  37  66 W12       29.82R
MOUNT IDA      MOCLDY    47  35  63 VRB3      29.78R
$$

ARZ009-017-025-026-028-251500-
NORTHEAST ARKANSAS

CITY           SKY/WX    TMP DP  RH WIND       PRES   REMARKS
JONESBORO      LGT RAIN  42  37  82 SW7       29.69F
NEWPORT        LGT RAIN  43  36  76 SW12      29.72S
WALNUT RIDGE   CLOUDY    41  36  81 SW13      29.69R
BLYTHEVILLE    CLOUDY    43  36  76 SW13      29.72F
$$

ARZ022-023-033-042-044-251500-
CENTRAL ARKANSAS

CITY           SKY/WX    TMP DP  RH WIND       PRES   REMARKS
LITTLE ROCK    MOCLDY    45  35  68 SW10      29.77F
N LITTLE ROCK  MOCLDY    46  38  73 SW8G15    29.77F
JACKSONVILLE   MOCLDY    45  36  70 SW6       29.74F
SEARCY         CLOUDY    43  36  76 SW6       29.74F
HOT SPRINGS    PTCLDY    42  36  79 W3        29.79F
RUSSELLVILLE   CLOUDY    40  37  89 SE3       29.76R
CLINTON        CLOUDY    41  39  93 CALM      29.74R
$$

ARZ036-251500-
EAST ARKANSAS

CITY           SKY/WX    TMP DP  RH WIND       PRES   REMARKS
WEST MEMPHIS   MOCLDY    40  37  89 S12       29.74F
$$

ARZ050-053-066-070-073-251500-
SOUTHWEST ARKANSAS

CITY           SKY/WX    TMP DP  RH WIND       PRES   REMARKS
ARKADELPHIA    FAIR      42  38  86 SW7       29.82F
CAMDEN         PTCLDY    41  36  81 MISG      29.85S
TEXARKANA      CLEAR     41  36  82 SW12      29.86S
EL DORADO      CLEAR     41  36  82 S8        29.86F
DE QUEEN       PTCLDY    32  31  96 W6        29.86R WCI  26
$$

ARZ056-057-069-251500-
SOUTHEAST ARKANSAS

CITY           SKY/WX    TMP DP  RH WIND       PRES   REMARKS
PINE BLUFF     CLOUDY    43  34  70 SW12      29.80F
STUTTGART      CLOUDY    45  36  70 SW15      29.78R
MONTICELLO     PTCLDY    44  35  70 SW9       29.82F

$$




USA.gov is the U.S. government's official web portal to all federal, state and local government web resources and services.